Time,TemperatureF,DewpointF,PressureIn,WindDirection,WindDirectionDegrees,WindSpeedMPH,WindSpeedGustMPH,Humidity,HourlyPrecipIn,Conditions,Clouds,dailyrainin,SoftwareType,DateUTC
2015-01-29 00:05:00,53.2,-99.9,30.19,WNW,297,0.0,0.0,0,0.00,,,0.00,Wunderground v.1.15,2015-01-29 08:05:00,
2015-01-29 00:10:00,53.2,-99.9,30.19,WNW,297,0.0,0.0,0,0.00,,,0.00,Wunderground v.1.15,2015-01-29 08:10:00,
2015-01-29 00:15:00,53.1,-99.9,30.19,SE,136,0.0,0.0,0,0.00,,,0.00,Wunderground v.1.15,2015-01-29 08:15:00,
2015-01-29 00:20:00,53.0,-99.9,30.19,SE,136,0.0,0.0,0,0.00,,,0.00,Wunderground v.1.15,2015-01-29 08:20:00,
2015-01-29 00:30:00,53.0,-99.9,30.19,SE,136,0.0,0.0,0,0.00,,,0.00,Wunderground v.1.15,2015-01-29 08:30:00,
2015-01-29 00:35:00,53.0,-99.9,30.19,SE,136,0.0,2.0,0,0.00,,,0.00,Wunderground v.1.15,2015-01-29 08:35:00,
2015-01-29 00:40:00,53.0,-99.9,30.19,SE,136,0.0,2.0,0,0.00,,,0.00,Wunderground v.1.15,2015-01-29 08:40:00,
2015-01-29 00:49:00,53.0,-99.9,30.18,SE,136,0.0,2.0,0,0.00,,,0.00,Wunderground v.1.15,2015-01-29 08:49:00,
2015-01-29 00:55:00,52.9,-99.9,30.18,SE,136,0.0,2.0,0,0.00,,,0.00,Wunderground v.1.15,2015-01-29 08:55:00,
2015-01-29 01:00:00,52.8,-99.9,30.18,SE,136,0.0,0.0,0,0.00,,,0.00,Wunderground v.1.15,2015-01-29 09:00:00,
2015-01-29 01:10:00,52.6,-99.9,30.18,SE,128,0.0,0.0,0,0.00,,,0.00,Wunderground v.1.15,2015-01-29 09:10:00,
2015-01-29 01:15:00,52.5,-99.9,30.18,West,269,0.0,0.0,0,0.00,,,0.00,Wunderground v.1.15,2015-01-29 09:15:00,
2015-01-29 01:20:00,52.5,-99.9,30.18,West,267,0.0,0.0,0,0.00,,,0.00,Wunderground v.1.15,2015-01-29 09:20:00,
2015-01-29 01:25:00,52.4,-99.9,30.18,West,267,0.0,0.0,0,0.00,,,0.00,Wunderground v.1.15,2015-01-29 09:25:00,
2015-01-29 01:35:00,52.4,-99.9,30.18,SE,132,0.0,1.0,0,0.00,,,0.00,Wunderground v.1.15,2015-01-29 09:35:00,
2015-01-29 01:44:00,52.2,-99.9,30.18,SE,129,0.0,1.0,0,0.00,,,0.00,Wunderground v.1.15,2015-01-29 09:44:00,
2015-01-29 01:50:00,52.0,-99.9,30.18,SE,135,0.0,1.0,0,0.00,,,0.00,Wunderground v.1.15,2015-01-29 09:50:00,
2015-01-29 01:55:00,51.9,-99.9,30.18,SE,129,0.0,1.0,0,0.00,,,0.00,Wunderground v.1.15,2015-01-29 09:55:00,
2015-01-29 02:00:00,51.7,-99.9,30.18,SE,129,0.0,0.0,0,0.00,,,0.00,Wunderground v.1.15,2015-01-29 10:00:00,
2015-01-29 02:10:00,51.3,-99.9,30.18,SE,129,0.0,0.0,0,0.00,,,0.00,Wunderground v.1.15,2015-01-29 10:10:00,
2015-01-29 02:15:00,51.0,-99.9,30.18,SE,129,0.0,0.0,0,0.00,,,0.00,Wunderground v.1.15,2015-01-29 10:15:00,
2015-01-29 02:20:00,50.7,-99.9,30.18,SE,129,0.0,0.0,0,0.00,,,0.00,Wunderground v.1.15,2015-01-29 10:20:00,
2015-01-29 02:25:00,50.4,-99.9,30.18,SE,129,0.0,0.0,0,0.00,,,0.00,Wunderground v.1.15,2015-01-29 10:25:00,
2015-01-29 02:34:00,49.8,-99.9,30.18,SE,129,0.0,0.0,0,0.00,,,0.00,Wunderground v.1.15,2015-01-29 10:34:00,
2015-01-29 02:40:00,49.7,-99.9,30.17,SE,129,0.0,0.0,0,0.00,,,0.00,Wunderground v.1.15,2015-01-29 10:40:00,
2015-01-29 02:50:00,50.3,-99.9,30.17,NNE,26,0.0,0.0,0,0.00,,,0.00,Wunderground v.1.15,2015-01-29 10:50:00,
2015-01-29 02:55:00,50.5,-99.9,30.17,NNE,26,0.0,0.0,0,0.00,,,0.00,Wunderground v.1.15,2015-01-29 10:55:00,
2015-01-29 03:00:00,50.5,-99.9,30.17,NNE,24,0.0,0.0,0,0.00,,,0.00,Wunderground v.1.15,2015-01-29 11:00:00,
2015-01-29 03:10:00,50.4,-99.9,30.17,NNE,24,0.0,0.0,0,0.00,,,0.00,Wunderground v.1.15,2015-01-29 11:10:00,
2015-01-29 03:20:00,50.5,-99.9,30.17,NNE,25,0.0,0.0,0,0.00,,,0.00,Wunderground v.1.15,2015-01-29 11:20:00,
2015-01-29 03:29:00,49.9,-99.9,30.16,ESE,121,0.0,1.0,0,0.00,,,0.00,Wunderground v.1.15,2015-01-29 11:29:00,
2015-01-29 03:35:00,49.5,-99.9,30.16,ESE,118,1.0,1.0,0,0.00,,,0.00,Wunderground v.1.15,2015-01-29 11:35:00,
2015-01-29 03:40:00,49.5,-99.9,30.16,ESE,118,1.0,1.0,0,0.00,,,0.00,Wunderground v.1.15,2015-01-29 11:40:00,
2015-01-29 03:45:00,49.8,-99.9,30.15,ESE,117,1.0,1.0,0,0.00,,,0.00,Wunderground v.1.15,2015-01-29 11:45:00,
2015-01-29 03:55:00,50.9,-99.9,30.15,SE,132,1.0,1.0,0,0.00,,,0.00,Wunderground v.1.15,2015-01-29 11:55:00,
2015-01-29 04:00:00,51.6,-99.9,30.15,SE,124,1.0,2.0,0,0.00,,,0.00,Wunderground v.1.15,2015-01-29 12:00:00,
2015-01-29 04:10:00,52.2,-99.9,30.15,ESE,118,1.0,1.0,0,0.00,,,0.00,Wunderground v.1.15,2015-01-29 12:10:00,
2015-01-29 04:19:00,52.5,-99.9,30.14,ESE,117,1.0,1.0,0,0.00,,,0.00,Wunderground v.1.15,2015-01-29 12:19:00,
2015-01-29 04:29:00,52.5,-99.9,30.15,ESE,114,1.0,1.0,0,0.00,,,0.00,Wunderground v.1.15,2015-01-29 12:29:00,
2015-01-29 04:35:00,52.5,-99.9,30.14,SE,126,2.0,3.0,0,0.00,,,0.00,Wunderground v.1.15,2015-01-29 12:35:00,
2015-01-29 04:40:00,52.6,-99.9,30.14,ESE,117,2.0,2.0,0,0.00,,,0.00,Wunderground v.1.15,2015-01-29 12:40:00,
2015-01-29 04:45:00,52.6,-99.9,30.14,ESE,114,2.0,2.0,0,0.00,,,0.00,Wunderground v.1.15,2015-01-29 12:45:00,
2015-01-29 04:50:00,52.4,-99.9,30.14,SE,124,1.0,2.0,0,0.00,,,0.00,Wunderground v.1.15,2015-01-29 12:50:00,
2015-01-29 04:55:00,52.4,-99.9,30.14,SE,128,2.0,2.0,0,0.00,,,0.00,Wunderground v.1.15,2015-01-29 12:55:00,
2015-01-29 05:00:00,52.1,-99.9,30.14,SE,129,2.0,3.0,0,0.00,,,0.00,Wunderground v.1.15,2015-01-29 13:00:00,
2015-01-29 05:09:00,51.9,-99.9,30.14,ESE,115,4.0,4.0,0,0.00,,,0.00,Wunderground v.1.15,2015-01-29 13:09:00,
2015-01-29 05:14:00,51.7,-99.9,30.14,ESE,114,4.0,6.0,0,0.00,,,0.00,Wunderground v.1.15,2015-01-29 13:14:00,
2015-01-29 05:20:00,51.6,-99.9,30.14,East,101,4.0,4.0,0,0.00,,,0.00,Wunderground v.1.15,2015-01-29 13:20:00,
2015-01-29 05:25:00,51.6,-99.9,30.14,ESE,110,3.0,4.0,0,0.00,,,0.00,Wunderground v.1.15,2015-01-29 13:25:00,
2015-01-29 05:30:00,51.6,-99.9,30.14,ESE,105,3.0,3.0,0,0.00,,,0.00,Wunderground v.1.15,2015-01-29 13:30:00,
2015-01-29 05:40:00,51.7,-99.9,30.14,NNE,33,2.0,2.0,0,0.00,,,0.00,Wunderground v.1.15,2015-01-29 13:40:00,
2015-01-29 05:45:00,51.6,-99.9,30.14,SE,142,2.0,4.0,0,0.00,,,0.00,Wunderground v.1.15,2015-01-29 13:45:00,
2015-01-29 05:54:00,51.2,-99.9,30.15,East,83,1.0,4.0,0,0.00,,,0.00,Wunderground v.1.15,2015-01-29 13:54:00,
2015-01-29 06:00:00,51.4,-99.9,30.15,SE,124,1.0,2.0,0,0.00,,,0.00,Wunderground v.1.15,2015-01-29 14:00:00,
2015-01-29 06:10:00,51.8,-99.9,30.15,SE,127,2.0,3.0,0,0.00,,,0.00,Wunderground v.1.15,2015-01-29 14:10:00,
2015-01-29 06:15:00,52.0,-99.9,30.15,ESE,114,2.0,3.0,0,0.00,,,0.00,Wunderground v.1.15,2015-01-29 14:15:00,
2015-01-29 06:20:00,52.1,-99.9,30.15,ESE,119,3.0,3.0,0,0.00,,,0.00,Wunderground v.1.15,2015-01-29 14:20:00,
2015-01-29 06:25:00,52.0,-99.9,30.15,SE,127,2.0,3.0,0,0.00,,,0.00,Wunderground v.1.15,2015-01-29 14:25:00,
2015-01-29 06:30:00,52.0,-99.9,30.15,SE,127,1.0,1.0,0,0.00,,,0.00,Wunderground v.1.15,2015-01-29 14:30:00,
2015-01-29 06:39:00,51.8,-99.9,30.16,SE,129,1.0,1.0,0,0.00,,,0.00,Wunderground v.1.15,2015-01-29 14:39:00,
2015-01-29 06:49:00,51.3,-99.9,30.15,SW,220,0.0,8.0,0,0.00,,,0.00,Wunderground v.1.15,2015-01-29 14:49:00,
2015-01-29 06:55:00,51.2,-99.9,30.15,SSE,149,0.0,8.0,0,0.00,,,0.00,Wunderground v.1.15,2015-01-29 14:55:00,
2015-01-29 07:00:00,51.1,-99.9,30.16,SSE,149,0.0,0.0,0,0.00,,,0.00,Wunderground v.1.15,2015-01-29 15:00:00,
2015-01-29 07:10:00,51.2,-99.9,30.16,ESE,115,0.0,2.0,0,0.00,,,0.00,Wunderground v.1.15,2015-01-29 15:10:00,
2015-01-29 07:20:00,51.7,-99.9,30.16,SE,124,1.0,1.0,0,0.00,,,0.00,Wunderground v.1.15,2015-01-29 15:20:00,
2015-01-29 07:29:00,51.6,-99.9,30.16,SE,138,0.0,0.0,0,0.00,,,0.00,Wunderground v.1.15,2015-01-29 15:29:00,
2015-01-29 07:35:00,51.6,-99.9,30.16,SE,140,0.0,6.0,0,0.00,,,0.00,Wunderground v.1.15,2015-01-29 15:35:00,
2015-01-29 07:40:00,51.4,-99.9,30.16,SE,139,0.0,6.0,0,0.00,,,0.00,Wunderground v.1.15,2015-01-29 15:40:00,
2015-01-29 07:45:00,51.6,-99.9,30.17,ESE,115,0.0,6.0,0,0.00,,,0.00,Wunderground v.1.15,2015-01-29 15:45:00,
2015-01-29 07:55:00,52.0,-99.9,30.17,ESE,116,2.0,6.0,0,0.00,,,0.00,Wunderground v.1.15,2015-01-29 15:55:00,
2015-01-29 08:00:00,52.1,-99.9,30.17,ESE,113,1.0,2.0,0,0.00,,,0.00,Wunderground v.1.15,2015-01-29 16:00:00,
2015-01-29 08:09:00,52.5,-99.9,30.17,SE,131,1.0,1.0,0,0.00,,,0.00,Wunderground v.1.15,2015-01-29 16:09:00,
2015-01-29 08:14:00,52.6,-99.9,30.17,ESE,115,1.0,1.0,0,0.00,,,0.00,Wunderground v.1.15,2015-01-29 16:14:00,
2015-01-29 08:20:00,52.8,-99.9,30.17,ESE,114,0.0,0.0,0,0.00,,,0.00,Wunderground v.1.15,2015-01-29 16:20:00,
2015-01-29 08:25:00,53.1,-99.9,30.17,SE,138,1.0,1.0,0,0.00,,,0.00,Wunderground v.1.15,2015-01-29 16:25:00,
2015-01-29 08:30:00,53.6,-99.9,30.17,SE,134,1.0,1.0,0,0.00,,,0.00,Wunderground v.1.15,2015-01-29 16:30:00,
2015-01-29 08:35:00,54.2,-99.9,30.17,SE,124,1.0,2.0,0,0.00,,,0.00,Wunderground v.1.15,2015-01-29 16:35:00,
2015-01-29 08:40:00,54.9,-99.9,30.16,ESE,119,1.0,6.0,0,0.00,,,0.00,Wunderground v.1.15,2015-01-29 16:40:00,
2015-01-29 08:45:00,55.4,-0.4,30.17,SE,129,1.0,6.0,10,0.00,,,0.00,Wunderground v.1.15,2015-01-29 16:45:00,
2015-01-29 08:50:00,56.0,16.6,30.17,NNE,19,1.0,6.0,21,0.00,,,0.00,Wunderground v.1.15,2015-01-29 16:50:00,
2015-01-29 09:00:00,56.4,26.9,30.17,ESE,107,1.0,1.0,32,0.00,,,0.00,Wunderground v.1.15,2015-01-29 17:00:00,
2015-01-29 09:10:00,57.4,31.3,30.17,SE,125,1.0,1.0,37,0.00,,,0.00,Wunderground v.1.15,2015-01-29 17:10:00,
2015-01-29 09:15:00,57.5,31.4,30.17,East,101,2.0,2.0,37,0.00,,,0.00,Wunderground v.1.15,2015-01-29 17:15:00,
2015-01-29 09:20:00,57.8,33.0,30.17,ESE,114,2.0,2.0,39,0.00,,,0.00,Wunderground v.1.15,2015-01-29 17:20:00,
2015-01-29 09:25:00,58.1,32.6,30.17,ESE,119,2.0,4.0,38,0.00,,,0.00,Wunderground v.1.15,2015-01-29 17:25:00,
2015-01-29 09:30:00,58.2,29.9,30.17,ESE,110,1.0,1.0,34,0.00,,,0.00,Wunderground v.1.15,2015-01-29 17:30:00,
2015-01-29 09:35:00,58.2,31.3,30.17,ESE,115,1.0,2.0,36,0.00,,,0.00,Wunderground v.1.15,2015-01-29 17:35:00,
2015-01-29 09:40:00,58.0,31.2,30.17,ESE,115,2.0,2.0,36,0.00,,,0.00,Wunderground v.1.15,2015-01-29 17:40:00,
2015-01-29 09:50:00,57.8,28.9,30.18,ESE,119,3.0,4.0,33,0.00,,,0.00,Wunderground v.1.15,2015-01-29 17:50:00,
2015-01-29 09:55:00,57.9,28.9,30.17,ESE,115,3.0,4.0,33,0.00,,,0.00,Wunderground v.1.15,2015-01-29 17:55:00,
2015-01-29 10:00:00,58.0,29.8,30.18,ESE,119,3.0,3.0,34,0.00,,,0.00,Wunderground v.1.15,2015-01-29 18:00:00,
2015-01-29 10:10:00,58.3,31.4,30.18,ESE,107,3.0,4.0,36,0.00,,,0.00,Wunderground v.1.15,2015-01-29 18:10:00,
2015-01-29 10:15:00,58.5,27.1,30.18,ESE,118,3.0,4.0,30,0.00,,,0.00,Wunderground v.1.15,2015-01-29 18:15:00,
2015-01-29 10:20:00,59.0,31.4,30.18,ESE,113,3.0,4.0,35,0.00,,,0.00,Wunderground v.1.15,2015-01-29 18:20:00,
2015-01-29 10:29:00,59.8,35.4,30.18,ESE,110,2.0,2.0,40,0.00,,,0.00,Wunderground v.1.15,2015-01-29 18:29:00,
2015-01-29 10:35:00,60.1,35.7,30.18,ESE,113,2.0,7.0,40,0.00,,,0.00,Wunderground v.1.15,2015-01-29 18:35:00,
2015-01-29 10:40:00,59.9,39.6,30.18,SE,138,2.0,2.0,47,0.00,,,0.00,Wunderground v.1.15,2015-01-29 18:40:00,
2015-01-29 10:50:00,60.5,39.6,30.18,ESE,115,2.0,7.0,46,0.00,,,0.00,Wunderground v.1.15,2015-01-29 18:50:00,
2015-01-29 10:55:00,60.8,39.9,30.18,ESE,105,2.0,7.0,46,0.00,,,0.00,Wunderground v.1.15,2015-01-29 18:55:00,
2015-01-29 11:00:00,61.1,41.8,30.17,East,96,2.0,4.0,49,0.00,,,0.00,Wunderground v.1.15,2015-01-29 19:00:00,
2015-01-29 11:09:00,61.2,41.3,30.17,ESE,102,1.0,1.0,48,0.00,,,0.00,Wunderground v.1.15,2015-01-29 19:09:00,
2015-01-29 11:14:00,61.6,42.8,30.17,WSW,239,1.0,2.0,50,0.00,,,0.00,Wunderground v.1.15,2015-01-29 19:14:00,
2015-01-29 11:19:00,61.4,43.6,30.17,North,350,2.0,2.0,52,0.00,,,0.00,Wunderground v.1.15,2015-01-29 19:19:00,
2015-01-29 11:25:00,61.4,42.1,30.17,ESE,107,3.0,4.0,49,0.00,,,0.00,Wunderground v.1.15,2015-01-29 19:25:00,
2015-01-29 11:30:00,61.8,43.5,30.16,South,191,3.0,3.0,51,0.00,,,0.00,Wunderground v.1.15,2015-01-29 19:30:00,
2015-01-29 11:35:00,61.9,44.1,30.16,WSW,242,2.0,8.0,52,0.00,,,0.00,Wunderground v.1.15,2015-01-29 19:35:00,
2015-01-29 11:40:00,62.0,43.1,30.16,ESE,114,1.0,1.0,50,0.00,,,0.00,Wunderground v.1.15,2015-01-29 19:40:00,
2015-01-29 11:45:00,62.5,44.6,30.16,ESE,112,1.0,8.0,52,0.00,,,0.00,Wunderground v.1.15,2015-01-29 19:45:00,
2015-01-29 11:50:00,63.1,46.7,30.16,SSE,149,1.0,1.0,55,0.00,,,0.00,Wunderground v.1.15,2015-01-29 19:50:00,
2015-01-29 11:55:00,62.8,46.4,30.15,ESE,117,1.0,4.0,55,0.00,,,0.00,Wunderground v.1.15,2015-01-29 19:55:00,